Weather History for KCSM - March, 2014

Change the Weather History Date:

Thursday, March 6, 2014

  Actual Average Record
Temperature  
Mean Temperature 40 °F -  
Max Temperature 52 °F 55 °F 79 °F (2009)
Min Temperature 28 °F 31 °F 19 °F (2003)
Degree Days  
Heating Degree Days 25    
Moisture  
Dew Point 33 °F    
Average Humidity 83    
Maximum Humidity 93    
Minimum Humidity 61    
Precipitation  
Precipitation 0.00 in - - ()
Sea Level Pressure  
Sea Level Pressure 30.16 in    
Wind  
Wind Speed 7 mph (South)    
Max Wind Speed 22 mph    
Max Gust Speed -    
Visibility 6 miles    
Events      
Averages and records for this station are not official NWS values.
T = Trace of Precipitation, MM = Missing Value Source: NWS Daily Summary

Daily Weather History Graph

Daily Weather History Graph

Search for Another Location

Airport or City:

Trip Planner

Search our weather history database for the weather conditions in past years. The results will help you decide how hot, cold, wet, or windy it might be!

Date:

Astronomy

Mar. 06, 2014 Rise Set
Actual Time 6:59 AM CST 6:36 PM CST
Civil Twilight 6:34 AM CST 7:02 PM CST
Nautical Twilight 6:05 AM CST 7:31 PM CST
Astronomical Twilight 5:35 AM CST 8:01 PM CST
Moon 10:21 AM CST No Moon Set
Length of Visible Light 12h 27m
Length of Day
11h 36m
Waxing Crescent, 32% of the Moon is Illuminated
Mar 6
Waxing Crescent
Mar 8
First Quarter
Mar 16
Full
Mar 23
Last Quarter
Mar 30
New

Hourly Weather History & Observations

Time (CST) Temp. Windchill Dew Point Humidity Pressure Visibility Wind Dir Wind Speed Gust Speed Precip Events Conditions
12:38 AM 28.4 °F 20.4 °F 26.6 °F 93% 30.24 in 2.5 mi NNE 8.1 mph - N/A   Clear
12:53 AM 28.9 °F 21.9 °F 27.0 °F 92% 30.27 in 2.5 mi NNE 6.9 mph - N/A   Clear
1:28 AM 30.2 °F - 28.4 °F 93% 30.25 in 2.5 mi Calm Calm - N/A   Mostly Cloudy
1:43 AM 30.2 °F 26.7 °F 28.4 °F 93% 30.25 in 3.0 mi NNE 3.5 mph - N/A   Overcast
1:53 AM 30.9 °F - 28.9 °F 92% 30.28 in 3.0 mi Calm Calm - N/A   Overcast
2:43 AM 32.0 °F 28.7 °F 28.4 °F 87% 30.23 in 4.0 mi NNE 3.5 mph - N/A   Overcast
2:53 AM 32.0 °F 28.7 °F 28.9 °F 88% 30.27 in 4.0 mi NNE 3.5 mph - N/A   Overcast
3:53 AM 32.0 °F 27.5 °F 30.0 °F 92% 30.27 in 3.0 mi West 4.6 mph - N/A   Overcast
4:22 AM 32.0 °F 26.4 °F 30.2 °F 93% 30.23 in 2.5 mi West 5.8 mph - N/A   Overcast
4:31 AM 32.0 °F 27.5 °F 30.2 °F 93% 30.23 in 3.0 mi West 4.6 mph - N/A   Overcast
4:53 AM 33.1 °F 28.7 °F 30.9 °F 92% 30.26 in 3.0 mi West 4.6 mph - N/A   Overcast
5:53 AM 33.1 °F 30.0 °F 30.9 °F 92% 30.26 in 4.0 mi WNW 3.5 mph - N/A   Overcast
6:53 AM 34.0 °F 31.0 °F 32.0 °F 92% 30.25 in 5.0 mi North 3.5 mph - N/A   Overcast
7:53 AM 35.1 °F 32.2 °F 32.0 °F 89% 30.25 in 4.0 mi NE 3.5 mph - N/A   Overcast
8:53 AM 36.0 °F - 33.1 °F 89% 30.26 in 5.0 mi Calm Calm - N/A   Overcast
9:53 AM 37.0 °F 32.4 °F 34.0 °F 89% 30.24 in 5.0 mi SSE 5.8 mph - N/A   Overcast
10:53 AM 39.0 °F 32.3 °F 35.1 °F 86% 30.25 in 6.0 mi South 10.4 mph - N/A   Overcast
11:53 AM 39.9 °F 33.9 °F 36.0 °F 86% 30.23 in 6.0 mi South 9.2 mph - N/A   Overcast
12:53 PM 42.1 °F 36.1 °F 37.0 °F 82% 30.19 in 7.0 mi South 10.4 mph - N/A   Overcast
1:32 PM 44.6 °F 38.8 °F 37.4 °F 76% 30.14 in 9.0 mi South 11.5 mph - N/A   Mostly Cloudy
1:53 PM 46.9 °F - 39.0 °F 74% 30.14 in 10.0 mi South 11.5 mph - N/A   Scattered Clouds
2:53 PM 50.0 °F - 39.9 °F 68% 30.08 in 10.0 mi South 18.4 mph - N/A   Clear
3:53 PM 52.0 °F - 39.9 °F 63% 30.05 in 10.0 mi South 16.1 mph - N/A   Clear
4:53 PM 51.1 °F - 37.9 °F 61% 30.03 in 10.0 mi SSE 16.1 mph - N/A   Clear
5:53 PM 50.0 °F - 37.9 °F 63% 30.01 in 10.0 mi SSE 16.1 mph - N/A   Clear
6:53 PM 45.0 °F 38.9 °F 37.0 °F 74% 30.01 in 10.0 mi South 12.7 mph - N/A   Clear
7:53 PM 44.1 °F 37.4 °F 37.0 °F 76% 30.01 in 10.0 mi SSE 13.8 mph - N/A   Clear
8:53 PM 43.0 °F 35.1 °F 36.0 °F 76% 30.00 in 10.0 mi SSE 17.3 mph - N/A   Clear
9:53 PM 42.1 °F 33.9 °F 35.1 °F 76% 29.99 in 10.0 mi SSE 17.3 mph - N/A   Clear
10:53 PM 42.1 °F 33.6 °F 35.1 °F 76% 29.96 in 10.0 mi South 18.4 mph - N/A   Clear
11:53 PM 41.0 °F 31.4 °F 34.0 °F 76% 29.94 in 10.0 mi South 21.9 mph - N/A   Clear